Des Moines, IA

3:13 AM CST on February 12, 2016 (GMT -0600)
Des Moines International

Weather History for KDSM - April, 2013

Change the Weather History Date:

Thursday, April 4, 2013

  Actual Average Record
Temperature  
Mean Temperature 49 °F 47 °F  
Max Temperature 65 °F 58 °F 89 °F (1929)
Min Temperature 32 °F 37 °F 13 °F (1899)
Degree Days  
Heating Degree Days 16 18  
Month to date heating degree days 101 74  
Since 1 July heating degree days 5430 5701  
Cooling Degree Days 0 0  
Month to date cooling degree days 0 0  
Year to date cooling degree days 0 1  
Moisture  
Dew Point 26 °F    
Average Humidity 43    
Maximum Humidity 59    
Minimum Humidity 26    
Precipitation  
Precipitation 0.00 in 0.10 in 1.16 in (1947)
Month to date precipitation 0.00 0.38  
Year to date precipitation 4.52 4.96  
Snow  
Snow 0.00 in 0.10 in 1.70 in (1977)
Month to date snowfall 0.0 0.4  
Since 1 July snowfall 48.3 33.9  
Snow Depth 0.00 in    
Sea Level Pressure  
Sea Level Pressure 30.14 in    
Wind  
Wind Speed 10 mph (West)    
Max Wind Speed 18 mph    
Max Gust Speed 24 mph    
Visibility 10 miles    
Events      
T = Trace of Precipitation, MM = Missing Value Source: NWS Daily Summary

Daily Weather History Graph

Daily Weather History Graph

Search for Another Location

Airport or City:

Trip Planner

Search our weather history database for the weather conditions in past years. The results will help you decide how hot, cold, wet, or windy it might be!

Date:

Astronomy

Apr. 04, 2013 Rise Set
Actual Time 6:52 AM CDT 7:43 PM CDT
Civil Twilight 6:24 AM CDT 8:11 PM CDT
Nautical Twilight 5:50 AM CDT 8:45 PM CDT
Astronomical Twilight 5:16 AM CDT 9:19 PM CDT
Moon 3:23 AM CDT (4/4) 1:58 PM CDT (4/4)
Length of Visible Light 13h 47m
Length of Day
12h 51m
Waning Crescent, 33% of the Moon is Illuminated
Apr 4
Waning Crescent
Apr 10
New
Apr 18
First Quarter
Apr 25
Full
May 2
Last Quarter

Hourly Weather History & Observations

Time (CDT) Temp. Windchill Dew Point Humidity Pressure Visibility Wind Dir Wind Speed Gust Speed Precip Events Conditions
12:54 AM 37.0 °F 31.0 °F 19.0 °F 48% 30.26 in 10.0 mi SSE 8.1 mph - N/A   Mostly Cloudy
1:54 AM 36.0 °F 30.3 °F 18.0 °F 48% 30.25 in 10.0 mi South 6.9 mph - N/A   Mostly Cloudy
2:54 AM 34.0 °F 28.0 °F 19.0 °F 54% 30.23 in 10.0 mi South 6.9 mph - N/A   Partly Cloudy
3:54 AM 33.1 °F 26.1 °F 19.0 °F 56% 30.21 in 10.0 mi South 8.1 mph - N/A   Clear
4:54 AM 34.0 °F 29.8 °F 19.0 °F 54% 30.22 in 10.0 mi SSW 4.6 mph - N/A   Partly Cloudy
5:54 AM 34.0 °F 31.0 °F 19.0 °F 54% 30.21 in 10.0 mi WSW 3.5 mph - N/A   Clear
6:54 AM 32.0 °F 26.4 °F 19.0 °F 59% 30.20 in 10.0 mi South 5.8 mph - N/A   Partly Cloudy
7:54 AM 35.1 °F 30.1 °F 21.0 °F 57% 30.19 in 10.0 mi SSW 5.8 mph - N/A   Clear
8:54 AM 41.0 °F 35.2 °F 23.0 °F 49% 30.18 in 10.0 mi SW 9.2 mph - N/A   Clear
9:54 AM 48.9 °F - 27.0 °F 43% 30.16 in 10.0 mi WSW 10.4 mph - N/A   Clear
10:54 AM 53.1 °F - 26.1 °F 35% 30.15 in 10.0 mi West 13.8 mph - N/A   Clear
11:54 AM 57.0 °F - 27.0 °F 32% 30.14 in 10.0 mi West 11.5 mph - N/A   Clear
12:54 PM 57.9 °F - 27.0 °F 31% 30.12 in 10.0 mi WNW 4.6 mph - N/A   Partly Cloudy
1:54 PM 62.1 °F - 28.0 °F 28% 30.09 in 10.0 mi West 9.2 mph - N/A   Partly Cloudy
2:54 PM 64.0 °F - 28.9 °F 27% 30.06 in 10.0 mi NW 11.5 mph 21.9 mph N/A   Partly Cloudy
3:54 PM 64.9 °F - 33.1 °F 31% 30.04 in 10.0 mi NNW 11.5 mph 18.4 mph N/A   Partly Cloudy
4:54 PM 63.0 °F - 36.0 °F 37% 30.05 in 10.0 mi NW 17.3 mph - N/A   Partly Cloudy
5:54 PM 62.1 °F - 36.0 °F 38% 30.05 in 10.0 mi NW 11.5 mph - N/A   Clear
6:54 PM 59.0 °F - 35.1 °F 41% 30.06 in 10.0 mi North 11.5 mph - N/A   Clear
7:54 PM 55.0 °F - 30.0 °F 38% 30.08 in 10.0 mi North 11.5 mph - N/A   Clear
8:54 PM 53.1 °F - 30.9 °F 43% 30.09 in 10.0 mi North 8.1 mph - N/A   Clear
9:54 PM 50.0 °F - 32.0 °F 50% 30.11 in 10.0 mi North 12.7 mph - N/A   Clear
10:54 PM 48.0 °F - 32.0 °F 54% 30.12 in 10.0 mi North 10.4 mph - N/A   Partly Cloudy
11:54 PM 46.0 °F 40.6 °F 32.0 °F 58% 30.14 in 10.0 mi North 11.5 mph - N/A   Clear